Weather History for Salt Lake City, UT

Change the Weather History Date:

Sunday, November 20, 2011

  Actual Average Record
Temperature  
Mean Temperature 32 °F 38 °F  
Max Temperature 39 °F 47 °F 65 °F (1966)
Min Temperature 24 °F 29 °F 2 °F (1930)
Degree Days  
Heating Degree Days 33 27  
Month to date heating degree days 518 454  
Since 1 July heating degree days 859 922  
Cooling Degree Days 0 0  
Month to date cooling degree days 0 0  
Year to date cooling degree days 1162 1160  
Moisture  
Dew Point 28 °F    
Average Humidity 81    
Maximum Humidity 85    
Minimum Humidity 76    
Precipitation  
Precipitation T in 0.05 in 0.66 in (1898)
Month to date precipitation 1.47 0.99  
Year to date precipitation 18.96 14.23  
Snow  
Snow T in 0.40 in 7.00 in (1946)
Month to date snowfall 5.5 4.1  
Since 1 July snowfall 5.5 5.5  
Snow Depth 0.00 in    
Sea Level Pressure  
Sea Level Pressure 29.96 in    
Wind  
Wind Speed 4 mph (North)    
Max Wind Speed 16 mph    
Max Gust Speed 66 mph    
Visibility 10 miles    
Events Snow    
T = Trace of Precipitation, MM = Missing Value Source: NWS Daily Summary

Daily Weather History Graph

Daily Weather History Graph

Search for Another Location

Airport:

Trip Planner

Search our weather history database for the weather conditions in past years. The results will help you decide how hot, cold, wet, or windy it might be!

Date:

Astronomy

Nov. 20, 2011 Rise Set
Actual Time 7:20 AM MST 5:06 PM MST
Civil Twilight 6:50 AM MST 5:35 PM MST
Nautical Twilight 6:17 AM MST 6:09 PM MST
Astronomical Twilight 5:44 AM MST 6:41 PM MST
Moon 1:51 AM MST (11/20) 1:58 PM MST (11/20)
Length of Visible Light 10h 45m
Length of Day
9h 45m
Waning Crescent, 26% of the Moon is Illuminated
Nov 20
Waning Crescent
Nov 24
New
Dec 2
First Quarter
Dec 10
Full
Dec 17
Last Quarter

Hourly Weather History & Observations

Time (MST) Temp. Windchill Dew Point Humidity Pressure Visibility Wind Dir Wind Speed Gust Speed Precip Events Conditions
12:53 AM 28.0 °F - 24.1 °F 85% 29.93 in 10.0 mi Calm Calm - N/A   Scattered Clouds
1:53 AM 27.0 °F 23.0 °F 23.0 °F 85% 29.91 in 10.0 mi SW 3.5 mph - N/A   Partly Cloudy
2:53 AM 26.1 °F - 21.9 °F 84% 29.92 in 10.0 mi Calm Calm - N/A   Partly Cloudy
3:53 AM 27.0 °F - 21.9 °F 81% 29.92 in 10.0 mi Calm Calm - N/A   Partly Cloudy
4:53 AM 26.6 °F - 21.2 °F 80% 29.90 in 10.0 mi Calm Calm - N/A   Scattered Clouds
5:53 AM 26.1 °F - 21.9 °F 84% 29.94 in 10.0 mi Calm Calm - N/A   Mostly Cloudy
6:53 AM 28.0 °F 22.8 °F 24.1 °F 85% 29.95 in 10.0 mi SE 4.6 mph - N/A   Overcast
7:53 AM 28.9 °F 25.2 °F 25.0 °F 85% 29.96 in 10.0 mi SSE 3.5 mph - N/A   Overcast
8:53 AM 30.2 °F 26.7 °F 26.6 °F 86% 29.94 in 10.0 mi ESE 3.5 mph - N/A Snow Light Snow
9:53 AM 33.1 °F - 28.9 °F 85% 29.99 in 9.0 mi Calm Calm - 0.00 in   Overcast
10:53 AM 37.0 °F 31.6 °F 30.0 °F 76% 29.97 in 10.0 mi SSE 6.9 mph - N/A   Mostly Cloudy
11:53 AM 37.9 °F 34.4 °F 32.0 °F 79% 29.96 in 10.0 mi West 4.6 mph - 0.00 in   Mostly Cloudy
12:53 PM 37.0 °F 31.6 °F 30.9 °F 79% 29.96 in 10.0 mi North 6.9 mph - N/A   Mostly Cloudy
1:53 PM 37.9 °F 34.4 °F 30.9 °F 76% 29.95 in 10.0 mi NNW 4.6 mph - N/A   Overcast
2:53 PM 37.9 °F 32.7 °F 32.0 °F 79% 29.96 in 10.0 mi NNW 6.9 mph - N/A   Overcast
3:53 PM 37.0 °F 30.4 °F 30.9 °F 79% 29.97 in 10.0 mi NW 9.2 mph - N/A   Overcast
4:53 PM 35.1 °F 28.6 °F 30.0 °F 82% 29.99 in 10.0 mi North 8.1 mph - N/A   Overcast
5:53 PM 34.0 °F 28.0 °F 28.9 °F 82% 30.02 in 10.0 mi NNW 6.9 mph - N/A   Mostly Cloudy
6:53 PM 33.8 °F - 28.4 °F 81% 29.98 in 10.0 mi Calm Calm - N/A   Mostly Cloudy
7:53 PM 34.0 °F 29.8 °F 28.9 °F 82% 30.01 in 10.0 mi SSW 4.6 mph - N/A   Mostly Cloudy
8:53 PM 35.6 °F 29.2 °F 30.2 °F 81% 29.98 in 10.0 mi ESE 8.1 mph - N/A   Overcast
9:53 PM 35.1 °F - 30.9 °F 85% 30.01 in 10.0 mi Calm Calm - N/A   Mostly Cloudy
10:53 PM 32.0 °F 25.6 °F 28.9 °F 88% 30.01 in 10.0 mi North 6.9 mph - N/A   Mostly Cloudy
11:53 PM 33.1 °F 30.0 °F 30.0 °F 89% 29.98 in 10.0 mi North 3.5 mph - N/A   Mostly Cloudy